Time,TemperatureF,DewpointF,PressureIn,WindDirection,WindDirectionDegrees,WindSpeedMPH,WindSpeedGustMPH,Humidity,HourlyPrecipIn,Conditions,Clouds,dailyrainin,SoftwareType,DateUTC
2013-05-21 00:13:00,77.8,73.0,29.86,SSE,167,0.0,3.0,85,0.00,,,0.00,weatherlink.com 1.10,2013-05-21 05:13:00,
2013-05-21 00:28:00,78.0,73.0,29.87,SE,146,0.0,2.0,85,0.00,,,0.00,weatherlink.com 1.10,2013-05-21 05:28:00,
2013-05-21 00:43:00,78.0,73.0,29.87,SE,146,0.0,1.0,85,0.00,,,0.00,weatherlink.com 1.10,2013-05-21 05:43:00,
2013-05-21 00:58:00,78.0,73.0,29.87,SE,145,0.0,1.0,85,0.00,,,0.00,weatherlink.com 1.10,2013-05-21 05:58:00,
2013-05-21 01:13:00,77.8,73.0,29.86,East,91,0.0,2.0,85,0.00,,,0.00,weatherlink.com 1.10,2013-05-21 06:13:00,
2013-05-21 01:28:00,77.7,73.0,29.87,SE,143,0.0,1.0,85,0.00,,,0.00,weatherlink.com 1.10,2013-05-21 06:28:00,
2013-05-21 01:43:00,77.6,73.0,29.86,SE,144,0.0,1.0,85,0.00,,,0.00,weatherlink.com 1.10,2013-05-21 06:43:00,
2013-05-21 01:58:00,77.4,73.0,29.86,SE,144,0.0,1.0,86,0.00,,,0.00,weatherlink.com 1.10,2013-05-21 06:58:00,
2013-05-21 02:13:00,76.9,73.0,29.86,SE,145,0.0,1.0,87,0.00,,,0.00,weatherlink.com 1.10,2013-05-21 07:13:00,
2013-05-21 02:28:00,76.5,72.0,29.86,SE,145,0.0,0.0,87,0.00,,,0.00,weatherlink.com 1.10,2013-05-21 07:28:00,
2013-05-21 02:43:00,75.9,72.0,29.85,SE,145,0.0,2.0,87,0.00,,,0.00,weatherlink.com 1.10,2013-05-21 07:43:00,
2013-05-21 02:58:00,75.8,72.0,29.85,SE,145,0.0,1.0,88,0.00,,,0.00,weatherlink.com 1.10,2013-05-21 07:58:00,
2013-05-21 03:13:00,75.8,72.0,29.85,SE,145,0.0,1.0,88,0.00,,,0.00,weatherlink.com 1.10,2013-05-21 08:13:00,
2013-05-21 03:28:00,75.7,72.0,29.84,SE,145,0.0,1.0,88,0.00,,,0.00,weatherlink.com 1.10,2013-05-21 08:28:00,
2013-05-21 03:43:00,75.6,72.0,29.83,South,180,0.0,3.0,88,0.00,,,0.00,weatherlink.com 1.10,2013-05-21 08:43:00,
2013-05-21 03:58:00,75.7,72.0,29.83,SSW,206,0.0,3.0,87,0.00,,,0.00,weatherlink.com 1.10,2013-05-21 08:58:00,
2013-05-21 04:13:00,75.9,72.0,29.83,SE,132,0.0,4.0,87,0.00,,,0.00,weatherlink.com 1.10,2013-05-21 09:13:00,
2013-05-21 04:28:00,75.8,72.0,29.83,South,170,0.0,3.0,87,0.00,,,0.00,weatherlink.com 1.10,2013-05-21 09:28:00,
2013-05-21 04:43:00,75.9,72.0,29.83,South,174,0.0,3.0,87,0.00,,,0.00,weatherlink.com 1.10,2013-05-21 09:43:00,
2013-05-21 04:58:00,75.9,72.0,29.83,SE,132,1.0,3.0,87,0.00,,,0.00,weatherlink.com 1.10,2013-05-21 09:58:00,
2013-05-21 05:13:00,75.7,72.0,29.83,SE,132,1.0,2.0,87,0.00,,,0.00,weatherlink.com 1.10,2013-05-21 10:13:00,
2013-05-21 05:28:00,75.3,71.0,29.84,SSW,213,1.0,1.0,87,0.00,,,0.00,weatherlink.com 1.10,2013-05-21 10:28:00,
2013-05-21 05:43:00,75.2,71.0,29.84,SSE,155,0.0,2.0,87,0.00,,,0.00,weatherlink.com 1.10,2013-05-21 10:43:00,
2013-05-21 05:58:00,75.3,71.0,29.84,SE,134,0.0,4.0,87,0.00,,,0.00,weatherlink.com 1.10,2013-05-21 10:58:00,
2013-05-21 06:13:00,75.4,71.0,29.85,WSW,238,0.0,1.0,87,0.00,,,0.00,weatherlink.com 1.10,2013-05-21 11:13:00,
2013-05-21 06:28:00,75.6,72.0,29.85,SSE,168,0.0,2.0,87,0.00,,,0.00,weatherlink.com 1.10,2013-05-21 11:28:00,
2013-05-21 06:43:00,75.8,72.0,29.86,South,186,0.0,3.0,87,0.00,,,0.00,weatherlink.com 1.10,2013-05-21 11:43:00,
2013-05-21 06:58:00,76.2,72.0,29.86,SSE,166,0.0,5.0,86,0.00,,,0.00,weatherlink.com 1.10,2013-05-21 11:58:00,
2013-05-21 07:13:00,76.3,72.0,29.86,SSE,165,0.0,5.0,86,0.00,,,0.00,weatherlink.com 1.10,2013-05-21 12:13:00,
2013-05-21 07:28:00,76.3,72.0,29.85,West,261,0.0,5.0,85,0.00,,,0.00,weatherlink.com 1.10,2013-05-21 12:28:00,
2013-05-21 07:43:00,76.6,72.0,29.85,SW,232,0.0,3.0,85,0.00,,,0.00,weatherlink.com 1.10,2013-05-21 12:43:00,
2013-05-21 07:58:00,77.0,72.0,29.85,South,182,0.0,3.0,85,0.00,,,0.00,weatherlink.com 1.10,2013-05-21 12:58:00,
2013-05-21 08:13:00,77.1,72.0,29.85,WSW,258,0.0,6.0,85,0.00,,,0.00,weatherlink.com 1.10,2013-05-21 13:13:00,
2013-05-21 08:28:00,77.1,72.0,29.85,ESE,108,5.0,5.0,85,0.00,,,0.00,weatherlink.com 1.10,2013-05-21 13:28:00,
2013-05-21 08:43:00,77.4,72.0,29.85,WSW,257,0.0,5.0,84,0.00,,,0.00,weatherlink.com 1.10,2013-05-21 13:43:00,
2013-05-21 08:58:00,78.1,72.0,29.86,SSE,150,2.0,7.0,82,0.00,,,0.00,weatherlink.com 1.10,2013-05-21 13:58:00,
2013-05-21 09:13:00,78.6,72.0,29.86,SE,138,0.0,4.0,81,0.00,,,0.00,weatherlink.com 1.10,2013-05-21 14:13:00,
2013-05-21 09:28:00,79.5,73.0,29.86,ENE,74,0.0,5.0,79,0.00,,,0.00,weatherlink.com 1.10,2013-05-21 14:28:00,
2013-05-21 09:44:00,80.7,73.0,29.86,ENE,68,0.0,4.0,76,0.00,,,0.00,weatherlink.com 1.10,2013-05-21 14:44:00,
2013-05-21 09:59:00,82.1,73.0,29.85,East,96,1.0,6.0,73,0.00,,,0.00,weatherlink.com 1.10,2013-05-21 14:59:00,
2013-05-21 10:14:00,83.3,72.0,29.85,SSE,147,1.0,10.0,69,0.00,,,0.00,weatherlink.com 1.10,2013-05-21 15:14:00,
2013-05-21 10:29:00,83.8,73.0,29.85,ESE,120,0.0,7.0,69,0.00,,,0.00,weatherlink.com 1.10,2013-05-21 15:29:00,
2013-05-21 10:44:00,84.6,73.0,29.86,South,186,0.0,4.0,69,0.00,,,0.00,weatherlink.com 1.10,2013-05-21 15:44:00,
2013-05-21 10:59:00,84.0,73.0,29.86,South,169,0.0,8.0,69,0.00,,,0.00,weatherlink.com 1.10,2013-05-21 15:59:00,
2013-05-21 11:14:00,83.0,72.0,29.86,WSW,246,0.0,6.0,69,0.00,,,0.00,weatherlink.com 1.10,2013-05-21 16:14:00,
2013-05-21 11:29:00,83.5,73.0,29.86,SE,138,2.0,2.0,70,0.00,,,0.00,weatherlink.com 1.10,2013-05-21 16:29:00,
2013-05-21 11:44:00,85.5,74.0,29.86,SSE,160,0.0,4.0,68,0.00,,,0.00,weatherlink.com 1.10,2013-05-21 16:44:00,
2013-05-21 11:59:00,86.3,73.0,29.86,SW,234,0.0,11.0,65,0.00,,,0.00,weatherlink.com 1.10,2013-05-21 16:59:00,
2013-05-21 12:14:00,86.6,73.0,29.85,South,185,0.0,5.0,64,0.00,,,0.00,weatherlink.com 1.10,2013-05-21 17:14:00,
2013-05-21 12:29:00,86.1,73.0,29.85,SE,145,0.0,4.0,66,0.00,,,0.00,weatherlink.com 1.10,2013-05-21 17:29:00,
2013-05-21 12:44:00,87.0,72.0,29.84,WSW,254,1.0,5.0,62,0.00,,,0.00,weatherlink.com 1.10,2013-05-21 17:44:00,
2013-05-21 12:59:00,86.9,73.0,29.84,ESE,118,0.0,7.0,64,0.00,,,0.00,weatherlink.com 1.10,2013-05-21 17:59:00,
2013-05-21 13:14:00,88.4,73.0,29.82,WSW,256,1.0,5.0,60,0.00,,,0.00,weatherlink.com 1.10,2013-05-21 18:14:00,
2013-05-21 13:29:00,89.2,72.0,29.82,SE,143,0.0,9.0,57,0.00,,,0.00,weatherlink.com 1.10,2013-05-21 18:29:00,
2013-05-21 13:44:00,89.8,73.0,29.82,WSW,247,1.0,5.0,57,0.00,,,0.00,weatherlink.com 1.10,2013-05-21 18:44:00,
2013-05-21 13:59:00,89.9,72.0,29.81,SE,138,0.0,5.0,56,0.00,,,0.00,weatherlink.com 1.10,2013-05-21 18:59:00,
2013-05-21 14:14:00,89.7,72.0,29.80,SSE,154,0.0,5.0,57,0.00,,,0.00,weatherlink.com 1.10,2013-05-21 19:14:00,
2013-05-21 14:29:00,90.0,72.0,29.80,SSE,151,4.0,7.0,55,0.00,,,0.00,weatherlink.com 1.10,2013-05-21 19:29:00,
2013-05-21 14:44:00,90.0,73.0,29.80,SW,217,3.0,8.0,57,0.00,,,0.00,weatherlink.com 1.10,2013-05-21 19:44:00,
2013-05-21 14:59:00,89.0,71.0,29.79,West,263,1.0,5.0,56,0.00,,,0.00,weatherlink.com 1.10,2013-05-21 19:59:00,
2013-05-21 15:14:00,87.9,72.0,29.79,West,266,0.0,7.0,59,0.00,,,0.00,weatherlink.com 1.10,2013-05-21 20:14:00,
2013-05-21 15:29:00,88.2,71.0,29.78,WSW,243,0.0,7.0,56,0.00,,,0.00,weatherlink.com 1.10,2013-05-21 20:29:00,
2013-05-21 15:44:00,88.0,72.0,29.77,SSW,203,0.0,4.0,60,0.00,,,0.00,weatherlink.com 1.10,2013-05-21 20:44:00,
2013-05-21 15:59:00,89.1,73.0,29.77,South,176,1.0,7.0,59,0.00,,,0.00,weatherlink.com 1.10,2013-05-21 20:59:00,
2013-05-21 16:14:00,89.8,73.0,29.75,SSE,151,0.0,7.0,57,0.00,,,0.00,weatherlink.com 1.10,2013-05-21 21:14:00,
2013-05-21 16:29:00,89.3,72.0,29.73,SE,134,0.0,9.0,57,0.00,,,0.00,weatherlink.com 1.10,2013-05-21 21:29:00,
2013-05-21 16:44:00,89.6,72.0,29.72,SE,130,0.0,5.0,56,0.00,,,0.00,weatherlink.com 1.10,2013-05-21 21:44:00,
2013-05-21 16:59:00,88.7,72.0,29.71,WNW,302,6.0,8.0,58,0.00,,,0.00,weatherlink.com 1.10,2013-05-21 21:59:00,
2013-05-21 17:14:00,88.8,72.0,29.70,South,173,0.0,3.0,58,0.00,,,0.00,weatherlink.com 1.10,2013-05-21 22:14:00,
2013-05-21 17:29:00,87.6,71.0,29.71,WSW,238,1.0,4.0,58,0.00,,,0.00,weatherlink.com 1.10,2013-05-21 22:29:00,
2013-05-21 17:44:00,87.4,71.0,29.72,SSW,205,6.0,6.0,58,0.00,,,0.00,weatherlink.com 1.10,2013-05-21 22:44:00,
2013-05-21 17:59:00,87.6,71.0,29.74,SSE,162,0.0,5.0,59,0.00,,,0.00,weatherlink.com 1.10,2013-05-21 22:59:00,
2013-05-21 18:14:00,87.5,72.0,29.73,SW,234,0.0,5.0,60,0.00,,,0.00,weatherlink.com 1.10,2013-05-21 23:14:00,
2013-05-21 18:29:00,86.7,72.0,29.73,SW,228,0.0,5.0,61,0.00,,,0.00,weatherlink.com 1.10,2013-05-21 23:29:00,
2013-05-21 18:44:00,84.3,71.0,29.75,WSW,256,0.0,1.0,65,0.00,,,0.00,weatherlink.com 1.10,2013-05-21 23:44:00,
2013-05-21 18:59:00,83.3,72.0,29.77,WSW,255,0.0,1.0,68,0.00,,,0.00,weatherlink.com 1.10,2013-05-21 23:59:00,
2013-05-21 19:14:00,82.4,72.0,29.78,SE,126,0.0,1.0,70,0.00,,,0.00,weatherlink.com 1.10,2013-05-22 00:14:00,
2013-05-21 19:29:00,81.6,72.0,29.79,ESE,123,0.0,1.0,72,0.00,,,0.00,weatherlink.com 1.10,2013-05-22 00:29:00,
2013-05-21 19:44:00,81.0,72.0,29.80,SE,128,0.0,1.0,73,0.00,,,0.00,weatherlink.com 1.10,2013-05-22 00:44:00,
2013-05-21 20:00:00,80.5,72.0,29.82,SE,127,0.0,1.0,75,0.00,,,0.00,weatherlink.com 1.10,2013-05-22 01:00:00,
2013-05-21 20:14:00,80.1,72.0,29.83,SE,128,0.0,1.0,76,0.00,,,0.00,weatherlink.com 1.10,2013-05-22 01:14:00,
2013-05-21 20:30:00,74.9,62.0,29.84,West,274,5.0,17.0,65,0.00,,,0.00,weatherlink.com 1.10,2013-05-22 01:30:00,
2013-05-21 20:45:00,73.1,62.0,29.85,West,276,5.0,9.0,68,0.00,,,0.00,weatherlink.com 1.10,2013-05-22 01:45:00,
2013-05-21 21:00:00,72.0,62.0,29.86,NNE,25,7.0,7.0,71,0.00,,,0.00,weatherlink.com 1.10,2013-05-22 02:00:00,
2013-05-21 21:15:00,70.8,62.0,29.88,West,280,2.0,9.0,73,0.00,,,0.00,weatherlink.com 1.10,2013-05-22 02:15:00,
2013-05-21 21:30:00,70.4,62.0,29.89,NNW,339,0.0,8.0,75,0.00,,,0.00,weatherlink.com 1.10,2013-05-22 02:30:00,
2013-05-21 21:45:00,69.3,64.0,29.88,WSW,257,0.0,2.0,82,0.01,,,0.01,weatherlink.com 1.10,2013-05-22 02:45:00,
2013-05-21 22:00:00,67.2,63.0,29.85,WNW,298,0.0,6.0,87,0.04,,,0.04,weatherlink.com 1.10,2013-05-22 03:00:00,
2013-05-21 22:15:00,66.5,63.0,29.88,West,259,0.0,4.0,87,0.05,,,0.05,weatherlink.com 1.10,2013-05-22 03:15:00,
2013-05-21 22:30:00,66.3,63.0,29.89,West,259,2.0,3.0,88,0.06,,,0.06,weatherlink.com 1.10,2013-05-22 03:30:00,
2013-05-21 22:45:00,66.0,62.0,29.90,West,271,0.0,5.0,88,0.07,,,0.09,weatherlink.com 1.10,2013-05-22 03:45:00,
2013-05-21 23:00:00,65.4,62.0,29.89,WNW,282,2.0,12.0,88,0.37,,,0.41,weatherlink.com 1.10,2013-05-22 04:00:00,
2013-05-21 23:15:00,65.9,62.0,29.93,SW,224,0.0,4.0,88,0.75,,,0.80,weatherlink.com 1.10,2013-05-22 04:15:00,
2013-05-21 23:30:00,66.3,63.0,29.87,ESE,108,0.0,3.0,88,0.98,,,1.04,weatherlink.com 1.10,2013-05-22 04:30:00,
2013-05-21 23:45:00,66.3,63.0,29.83,SSE,159,1.0,5.0,88,0.98,,,1.07,weatherlink.com 1.10,2013-05-22 04:45:00,